Weather History for Bennington, VT

Change the Weather History Date:

Friday, October 21, 2011

  Actual Average Record
Temperature  
Mean Temperature 51 °F 46 °F  
Max Temperature 54 °F 57 °F 72 °F (2000)
Min Temperature 48 °F 35 °F 27 °F (2002)
Degree Days  
Heating Degree Days 14 19  
Month to date heating degree days 334  
Since 1 July heating degree days 612  
Cooling Degree Days 0 0  
Month to date cooling degree days 0  
Year to date cooling degree days 311  
Growing Degree Days 1 (Base 50)    
Moisture  
Dew Point 40 °F    
Average Humidity 64    
Maximum Humidity 77    
Minimum Humidity 57    
Precipitation  
Precipitation 0.00 in 0.12 in 0.07 in (2008)
Month to date precipitation 2.62  
Year to date precipitation 33.73  
Sea Level Pressure  
Sea Level Pressure 29.81 in    
Wind  
Wind Speed 7 mph (SW)    
Max Wind Speed 12 mph    
Max Gust Speed 20 mph    
Visibility 10 miles    
Events Rain    
T = Trace of Precipitation, MM = Missing Value Source: NWS Daily Summary

Daily Weather History Graph

Daily Weather History Graph

Search for Another Location

Airport:

Trip Planner

Search our weather history database for the weather conditions in past years. The results will help you decide how hot, cold, wet, or windy it might be!

Date:

Astronomy

Oct. 21, 2011 Rise Set
Actual Time 7:13 AM EDT 6:01 PM EDT
Civil Twilight 6:44 AM EDT 6:30 PM EDT
Nautical Twilight 6:11 AM EDT 7:03 PM EDT
Astronomical Twilight 5:38 AM EDT 7:35 PM EDT
Moon 12:51 AM EDT (10/21) 2:51 PM EDT (10/21)
Length of Visible Light 11h 45m
Length of Day
10h 48m
Waning Crescent, 34% of the Moon is Illuminated
Oct 21
Waning Crescent
Oct 26
New
Nov 2
First Quarter
Nov 10
Full
Nov 18
Last Quarter

Hourly Weather History & Observations

Time (EDT) Temp. Dew Point Humidity Pressure Visibility Wind Dir Wind Speed Gust Speed Precip Events Conditions
12:54 AM 52.0 °F 39.9 °F 63% 29.62 in 10.0 mi SSW 10.4 mph 18.4 mph N/A   Overcast
2:54 AM 51.1 °F 39.9 °F 66% 29.64 in 10.0 mi SSW 8.1 mph - N/A   Overcast
3:54 AM 51.1 °F 39.0 °F 63% 29.64 in 10.0 mi SW 8.1 mph - N/A   Overcast
4:54 AM 51.1 °F 37.9 °F 61% 29.67 in 10.0 mi SSW 10.4 mph 19.6 mph N/A   Overcast
5:54 AM 50.0 °F 39.0 °F 66% 29.69 in 10.0 mi SSW 4.6 mph - N/A   Overcast
6:54 AM 50.0 °F 37.9 °F 63% 29.71 in 10.0 mi Variable 4.6 mph - 0.00 in Rain Light Rain
8:54 AM 51.1 °F 37.9 °F 61% 29.77 in 10.0 mi SSW 11.5 mph - N/A   Overcast
9:54 AM 52.0 °F 39.0 °F 61% 29.79 in 10.0 mi SW 9.2 mph - N/A   Overcast
10:54 AM 53.1 °F 39.0 °F 59% 29.81 in 10.0 mi SW 8.1 mph - N/A   Overcast
11:54 AM 54.0 °F 39.0 °F 57% 29.83 in 10.0 mi WSW 6.9 mph 16.1 mph N/A   Overcast
12:54 PM 54.0 °F 39.9 °F 59% 29.83 in 10.0 mi Variable 6.9 mph - N/A   Overcast
1:54 PM 54.0 °F 39.9 °F 59% 29.83 in 10.0 mi SW 8.1 mph - N/A   Overcast
2:54 PM 54.0 °F 39.9 °F 59% 29.84 in 10.0 mi WSW 5.8 mph - N/A   Overcast
3:54 PM 54.0 °F 39.9 °F 59% 29.86 in 10.0 mi West 5.8 mph - N/A   Overcast
4:54 PM 54.0 °F 41.0 °F 62% 29.88 in 10.0 mi West 4.6 mph - N/A   Overcast
5:54 PM 53.1 °F 41.0 °F 64% 29.90 in 10.0 mi Calm Calm - N/A   Overcast
7:54 PM 50.0 °F 43.0 °F 77% 29.93 in 10.0 mi SW 3.5 mph - N/A   Overcast
8:54 PM 51.1 °F 39.9 °F 66% 29.95 in 10.0 mi West 3.5 mph - N/A   Overcast
9:54 PM 50.0 °F 41.0 °F 71% 29.97 in 10.0 mi Variable 4.6 mph - N/A   Overcast
10:54 PM 48.9 °F 41.0 °F 74% 29.96 in 10.0 mi SSW 3.5 mph - N/A   Overcast
11:54 PM 48.9 °F 41.0 °F 74% 29.96 in 10.0 mi Calm Calm - N/A   Overcast